This is the latest recevied weather packets stored in our database for station/object NK2J. If no packets are shown the sender has not sent any weather packets the latest 10 day(s).
| Time | Temp. | Humidity | Pressure | Rain* | Wind** | Luminosity | Snow |
|---|---|---|---|---|---|---|---|
| 1778100515 | 26.11° C | 24% | 1016.6 hPa | 0 mm | - | 683 W/m² | - |
| 1778100213 | 26.11° C | 24% | 1016.5 hPa | 0 mm | - | 692 W/m² | - |
| 1778099910 | 26.11° C | 25% | 1016.5 hPa | 0 mm | - | 699 W/m² | - |
| 1778099607 | 26.11° C | 25% | 1016.7 hPa | 0 mm | - | 708 W/m² | - |
| 1778099304 | 26.11° C | 24% | 1016.7 hPa | 0 mm | - | 712 W/m² | - |
| 1778099000 | 26.11° C | 25% | 1016.7 hPa | 0 mm | - | 719 W/m² | - |
| 1778098691 | 25.56° C | 27% | 1016.8 hPa | 0 mm | - | 729 W/m² | - |
| 1778098389 | 25.56° C | 25% | 1016.7 hPa | 0 mm | - | 732 W/m² | - |
| 1778098086 | 25° C | 25% | 1016.6 hPa | 0 mm | - | 739 W/m² | - |
| 1778097782 | 25.56° C | 27% | 1016.8 hPa | 0 mm | - | 743 W/m² | - |
| 1778097478 | 25.56° C | 26% | 1017.1 hPa | 0 mm | - | 746 W/m² | - |
| 1778097175 | 25.56° C | 26% | 1016.9 hPa | 0 mm | - | 751 W/m² | - |
| 1778096872 | 25° C | 26% | 1017 hPa | 0 mm | - | 752 W/m² | - |
| 1778096568 | 25° C | 26% | 1016.9 hPa | 0 mm | - | 754 W/m² | - |
| 1778096267 | 25° C | 26% | 1017 hPa | 0 mm | - | 760 W/m² | - |
| 1778095963 | 24.44° C | 27% | 1017.1 hPa | 0 mm | - | 762 W/m² | - |
| 1778095659 | 23.89° C | 27% | 1017.2 hPa | 0 mm | - | 765 W/m² | - |
| 1778095356 | 25° C | 27% | 1016.9 hPa | 0 mm | - | 765 W/m² | - |
| 1778095053 | 24.44° C | 26% | 1017.4 hPa | 0 mm | - | 766 W/m² | - |
| 1778094749 | 24.44° C | 28% | 1017.4 hPa | 0 mm | - | 769 W/m² | - |
| 1778094446 | 23.33° C | 27% | 1017.4 hPa | 0 mm | - | 768 W/m² | - |
| 1778094143 | 24.44° C | 29% | 1017.3 hPa | 0 mm | - | 768 W/m² | - |
| 1778093840 | 23.89° C | 30% | 1017.5 hPa | 0 mm | - | 767 W/m² | - |
| 1778093536 | 23.33° C | 30% | 1017.7 hPa | 0 mm | - | 764 W/m² | - |
| 1778093234 | 24.44° C | 28% | 1017.7 hPa | 0 mm | - | 763 W/m² | - |
* Rain latest hour (hover to see other rain measurements)
** Current wind speed in m/s (hover to see current wind gust speed)